Tracking 18673 objects as of 27-June-2017
HD Live streaming from Space Station
objects crossing your sky now

50 SAT

Track 50 SAT now!
10-day predictions
50 SAT is classified as:


NORAD ID: 39436
Int'l Code: 2013-066W
Perigee: 453.3 km
Apogee: 468.5 km
Inclination: 97.7 °
Period: 93.7 minutes
Semi major axis: 6831 km
RCS: Unknown
Launch date: November 21, 2013
Source: (TBD)
Launch site: Orenburg, Russia (OREN)
Uplink (MHz):
Downlink (MHz): 437.505
Beacon (MHz): 437.505
Mode: 9600bps GFSK RTTY CW
Call sign:
Status: Active

Your satellite tracking list
Your tracking list is empty





NASA's NSSDC Master Catalog

Two Line Element Set (TLE):
1 39436U 13066W   17177.24123909 +.00020246 +00000-0 +55237-3 0  9993
2 39436 097.7097 283.6346 0011134 057.3545 302.8771 15.37417445196899
Source of the keplerian elements: Caltech